Flag for Germany Weather past 2 weeks in Iserlohn, North Rhine-Westphalia, Germany

Now
70 °F

Sunny.


Feels Like: 70 °F
Forecast: 59 / 83 °F
Wind: 3 mph from North

Location: Dortmund / Wickede

Current Time: Aug 2, 2015 at 11:23:49 AM

Latest Report: Aug 2, 2015 at 10:50 AM


Visibility: 10 mi

Pressure: 30.15 "Hg

Humidity: 38%

Dew point: 43 °F

Location of IserlohnLocation

Historic Weather in Iserlohn — Graph

°F

Iserlohn temperature yesterday

Maximum temperature yesterday: 75 °F (at 2:50 PM)
Minimum temperature yesterday: 46 °F (at 5:20 AM)
Average temperature yesterday: 65 °F

Past Weeks' High & Low Weather Summary

 TemperatureHumidityPressure
High81 °F (Jul 24, 5:50 PM)88% (Jul 19, 5:20 AM)30.15 "Hg (Jul 19, 5:20 AM)
Low45 °F (Jul 31, 5:20 AM)31% (Aug 1, 2:20 PM)29.50 "Hg (Jul 25, 7:50 AM)
Average64 °F65%29.87 "Hg
* Reported Jul 18 9:20 AM — Aug 2 9:50 AM, Iserlohn, Weather by CustomWeather, © 2015

Note: Actual official high and low records may vary slightly from our data, if they occured in-between our weather recording intervals... More about our weather records

Advertising

Iserlohn weather history for previous 24 hours

 ConditionsComfort  
Time TempWeatherWind HumidityBarometerVisibility
9:50 AM
Sun, Aug 2
68 °FSunny.1 mph46%30.15 "Hg10 mi
9:20 AM66 °FSunny.2 mph56%30.12 "Hg10 mi
8:50 AM61 °FPassing clouds.5 mph68%30.12 "HgN/A
8:20 AM57 °FSunny.7 mph77%30.12 "Hg10 mi
7:50 AM55 °FSunny.7 mph77%30.12 "Hg10 mi
7:20 AM54 °FSunny.7 mph82%30.12 "Hg10 mi
6:50 AM52 °FClear.7 mph82%30.12 "Hg10 mi
6:20 AM52 °FClear.7 mph82%30.09 "Hg10 mi
5:50 AM50 °FClear.7 mph82%30.09 "Hg10 mi
5:20 AM50 °FClear.7 mph88%30.09 "Hg10 mi
10:50 PM
Sat, Aug 1
63 °FClear.2 mph56%30.04 "Hg10 mi
10:20 PM63 °FClear.3 mph56%30.04 "Hg10 mi
9:50 PM63 °FSunny.2 mph56%30.04 "Hg10 mi
9:20 PM64 °FPassing clouds.5 mph56%30.01 "HgN/A
8:50 PM68 °FPassing clouds.6 mph46%30.01 "HgN/A
8:20 PM72 °FPassing clouds.6 mph38%30.01 "HgN/A
7:50 PM73 °FSunny.6 mph38%29.98 "Hg10 mi
7:20 PM73 °FSunny.6 mph38%29.98 "Hg10 mi
6:50 PM73 °FPassing clouds.5 mph36%29.98 "HgN/A
6:20 PM73 °FPassing clouds.6 mph33%29.98 "HgN/A
5:50 PM72 °FPassing clouds.6 mph41%29.98 "HgN/A
5:20 PM75 °FPassing clouds.7 mph34%29.98 "HgN/A
4:50 PM73 °FPassing clouds.5 mph33%29.98 "HgN/A
4:20 PM75 °FSunny.3 mph34%29.98 "Hg10 mi
3:50 PM73 °FSunny.5 mph33%29.95 "Hg10 mi
3:20 PM73 °FSunny.5 mph33%29.95 "Hg10 mi
2:50 PM75 °FSunny.5 mph31%29.98 "Hg10 mi
2:20 PM73 °FPassing clouds.5 mph31%29.98 "HgN/A
1:50 PM72 °FPassing clouds.5 mph33%29.98 "HgN/A
1:20 PM73 °FPassing clouds.6 mph38%29.98 "HgN/A
12:50 PM72 °FSunny.5 mph36%29.98 "Hg10 mi
12:20 PM70 °FSunny.3 mph38%29.98 "Hg10 mi
11:50 AM70 °FSunny.5 mph40%29.98 "Hg10 mi
11:20 AM68 °FSunny.5 mph43%29.98 "Hg10 mi
Weather by CustomWeather, © 2015

See weather overviewHow to use our weather pages